,,Stat6,,Stat2,,Stat8,,Stat9,,Stat10,,Wind1,,Wind1,
time,status,PA1M_AVG,status,PR1M_SUM,status,RH1M_AVG,status,SR1M_AVG,status,TA1M_AVG,status,W1dAve1m,status,W1sAve1m,
2004-07-22, 00:00:00,VALID,918.383,VALID,0,VALID,98.6218,VALID,-0.0169808,VALID,20.3769,VALID,9,VALID,0.255504,
2004-07-22, 00:01:00,VALID,918.388,VALID,0,VALID,98.6244,VALID,0,VALID,20.3871,VALID,9,VALID,0.104911,
2004-07-22, 00:02:00,VALID,918.389,VALID,0,VALID,98.5722,VALID,0.0169808,VALID,20.3834,VALID,9,VALID,0.142535,
2004-07-22, 00:03:00,VALID,918.38,VALID,0,VALID,98.5036,VALID,0.0169808,VALID,20.3546,VALID,9,VALID,0.274414,
2004-07-22, 00:04:00,VALID,918.365,VALID,0,VALID,98.4731,VALID,0.0169808,VALID,20.3449,VALID,9,VALID,0.28125,
2004-07-22, 00:05:00,VALID,918.36,VALID,0,VALID,98.5214,VALID,0,VALID,20.3225,VALID,9,VALID,0,
2004-07-22, 00:06:00,VALID,918.368,VALID,0,VALID,98.6536,VALID,0,VALID,20.3253,VALID,9,VALID,0.0877131,
2004-07-22, 00:07:00,VALID,918.355,VALID,0,VALID,98.7159,VALID,-0.0339617,VALID,20.3325,VALID,10,VALID,0.354421,
2004-07-22, 00:08:00,VALID,918.341,VALID,0,VALID,98.8482,VALID,-0.118866,VALID,20.33,VALID,19,VALID,0.461846,
2004-07-22, 00:09:00,VALID,918.335,VALID,0,VALID,98.8774,VALID,-0.101885,VALID,20.3362,VALID,19,VALID,0.442773,
2004-07-22, 00:10:00,VALID,918.332,VALID,0,VALID,98.81,VALID,-0.118866,VALID,20.3163,VALID,19,VALID,0.376953,
2004-07-22, 00:11:00,VALID,918.328,VALID,0,VALID,98.6803,VALID,-0.101885,VALID,20.2977,VALID,19,VALID,0.488372,
2004-07-22, 00:12:00,VALID,918.323,VALID,0,VALID,98.6905,VALID,-0.101885,VALID,20.2719,VALID,19,VALID,0.411458,
2004-07-22, 00:13:00,VALID,918.329,VALID,0,VALID,98.7554,VALID,-0.101885,VALID,20.2622,VALID,19,VALID,0.335938,
2004-07-22, 00:14:00,VALID,918.334,VALID,0,VALID,98.9168,VALID,-0.101885,VALID,20.2684,VALID,19,VALID,0.24673,
2004-07-22, 00:15:00,VALID,918.338,VALID,0,VALID,99.0033,VALID,-0.0849042,VALID,20.2816,VALID,19,VALID,0.494048,
2004-07-22, 00:16:00,VALID,918.359,VALID,0,VALID,99.0605,VALID,-0.101885,VALID,20.2885,VALID,19,VALID,0.305596,
2004-07-22, 00:17:00,VALID,918.353,VALID,0,VALID,99.086,VALID,-0.101885,VALID,20.2982,VALID,19,VALID,0.25093,
2004-07-22, 00:18:00,VALID,918.355,VALID,0,VALID,99.0071,VALID,-0.101885,VALID,20.2851,VALID,19,VALID,0.0510817,
2004-07-22, 00:19:00,VALID,918.332,VALID,0,VALID,98.9931,VALID,-0.101885,VALID,20.2657,VALID,48,VALID,0.236919,
2004-07-22, 00:20:00,VALID,918.323,VALID,0,VALID,98.9893,VALID,-0.101885,VALID,20.2627,VALID,133,VALID,0.376635,
2004-07-22, 00:21:00,VALID,918.301,VALID,0,VALID,99.0911,VALID,-0.0849042,VALID,20.2692,VALID,133,VALID,0.192336,
2004-07-22, 00:22:00,VALID,918.287,VALID,0,VALID,99.1661,VALID,-0.0679233,VALID,20.2649,VALID,133,VALID,0.150534,
2004-07-22, 00:23:00,VALID,918.28,VALID,0,VALID,99.2487,VALID,-0.0169808,VALID,20.2833,VALID,133,VALID,0.000186012,
2004-07-22, 00:24:00,VALID,918.27,VALID,0,VALID,99.3009,VALID,0,VALID,20.3096,VALID,133,VALID,0.00605469,
2004-07-22, 00:25:00,VALID,918.264,VALID,0,VALID,99.2856,VALID,-0.0169808,VALID,20.3096,VALID,133,VALID,0.0571733,
2004-07-22, 00:26:00,VALID,918.26,VALID,0,VALID,99.1902,VALID,-0.0339617,VALID,20.2999,VALID,133,VALID,0.0109012,
2004-07-22, 00:27:00,VALID,918.245,VALID,0,VALID,99.0796,VALID,-0.0169808,VALID,20.2873,VALID,133,VALID,0,
2004-07-22, 00:28:00,VALID,918.238,VALID,0,VALID,99.0529,VALID,0,VALID,20.2741,VALID,133,VALID,0.0100694,
2004-07-22, 00:29:00,VALID,918.217,VALID,0,VALID,98.9893,VALID,0,VALID,20.2477,VALID,133,VALID,0.233665,
2004-07-22, 00:30:00,VALID,918.217,VALID,0,VALID,98.8749,VALID,-0.0169808,VALID,20.2321,VALID,133,VALID,0.209484,
2004-07-22, 00:31:00,VALID,918.228,VALID,0,VALID,98.8469,VALID,0,VALID,20.2125,VALID,133,VALID,0.148438,
2004-07-22, 00:32:00,VALID,918.245,VALID,0,VALID,98.8787,VALID,0.0169808,VALID,20.1864,VALID,133,VALID,0.174893,
2004-07-22, 00:33:00,VALID,918.262,VALID,0,VALID,98.983,VALID,0.0169808,VALID,20.1769,VALID,75,VALID,0.409268,
2004-07-22, 00:34:00,VALID,918.257,VALID,0,VALID,99.1063,VALID,0,VALID,20.1635,VALID,33,VALID,0.54524,
2004-07-22, 00:35:00,VALID,918.243,VALID,0,VALID,99.2525,VALID,0,VALID,20.1735,VALID,30,VALID,0.0671503,
2004-07-22, 00:36:00,VALID,918.229,VALID,0,VALID,99.2793,VALID,0,VALID,20.1608,VALID,30,VALID,0.074314,
2004-07-22, 00:37:00,VALID,918.225,VALID,0,VALID,99.4026,VALID,-0.0169808,VALID,20.174,VALID,30,VALID,0,
2004-07-22, 00:38:00,VALID,918.236,VALID,0,VALID,99.4153,VALID,0,VALID,20.1842,VALID,30,VALID,0.00111607,
2004-07-22, 00:39:00,VALID,918.244,VALID,0,VALID,99.3784,VALID,-0.0339617,VALID,20.1777,VALID,30,VALID,0.00195313,
2004-07-22, 00:40:00,VALID,918.238,VALID,0,VALID,99.3161,VALID,-0.0169808,VALID,20.168,VALID,30,VALID,0.470567,
2004-07-22, 00:41:00,VALID,918.228,VALID,0,VALID,99.1877,VALID,0,VALID,20.1578,VALID,27,VALID,0.632994,
2004-07-22, 00:42:00,VALID,918.231,VALID,0,VALID,99.1228,VALID,-0.0339617,VALID,20.1293,VALID,24,VALID,0.417259,
2004-07-22, 00:43:00,VALID,918.226,VALID,0,VALID,99.1864,VALID,0,VALID,20.1129,VALID,24,VALID,0.380952,
2004-07-22, 00:44:00,VALID,918.219,VALID,0,VALID,99.2882,VALID,0,VALID,20.1322,VALID,24,VALID,0.282158,
2004-07-22, 00:45:00,VALID,918.221,VALID,0,VALID,99.4204,VALID,0,VALID,20.1514,VALID,24,VALID,0.665264,
2004-07-22, 00:46:00,VALID,918.214,VALID,0,VALID,99.4776,VALID,0,VALID,20.1643,VALID,24,VALID,0.388021,
2004-07-22, 00:47:00,VALID,918.204,VALID,0,VALID,99.5031,VALID,0,VALID,20.1774,VALID,24,VALID,0.641319,
2004-07-22, 00:48:00,VALID,918.193,VALID,0,VALID,99.5183,VALID,-0.0169808,VALID,20.1876,VALID,24,VALID,0.634084,
2004-07-22, 00:49:00,VALID,918.198,VALID,0,VALID,99.5209,VALID,-0.0169808,VALID,20.1973,VALID,24,VALID,0.334484,
2004-07-22, 00:50:00,VALID,918.19,VALID,0,VALID,99.5527,VALID,-0.0339617,VALID,20.2006,VALID,22,VALID,0.401526,
2004-07-22, 00:51:00,VALID,918.197,VALID,0,VALID,99.6022,VALID,-0.0339617,VALID,20.2068,VALID,21,VALID,0.617383,
2004-07-22, 00:52:00,VALID,918.195,VALID,0,VALID,99.5921,VALID,0,VALID,20.2165,VALID,18,VALID,0.789244,
2004-07-22, 00:53:00,VALID,918.186,VALID,0,VALID,99.5972,VALID,-0.0169808,VALID,20.213,VALID,18,VALID,0.67569,
2004-07-22, 00:54:00,VALID,918.183,VALID,0,VALID,99.6251,VALID,-0.0169808,VALID,20.2254,VALID,19,VALID,0.313689,
2004-07-22, 00:55:00,VALID,918.174,VALID,0,VALID,99.6404,VALID,-0.0169808,VALID,20.2455,VALID,19,VALID,0.529018,
2004-07-22, 00:56:00,VALID,918.156,VALID,0,VALID,99.6976,VALID,-0.0339617,VALID,20.2612,VALID,21,VALID,0.670945,
2004-07-22, 00:57:00,VALID,918.158,VALID,0,VALID,99.7078,VALID,-0.0679233,VALID,20.2937,VALID,30,VALID,0.560156,
2004-07-22, 00:58:00,VALID,918.146,VALID,0,VALID,99.7319,VALID,-0.0339617,VALID,20.3263,VALID,27,VALID,0.740663,
2004-07-22, 00:59:00,VALID,918.157,VALID,0,VALID,99.6607,VALID,-0.0169808,VALID,20.326,VALID,18,VALID,0.587652,
2004-07-22, 01:00:00,VALID,918.137,VALID,0,VALID,99.5476,VALID,-0.0339617,VALID,20.3303,VALID,15,VALID,0.476563,
2004-07-22, 01:01:00,VALID,918.115,VALID,0,VALID,99.6226,VALID,-0.0509425,VALID,20.3397,VALID,16,VALID,0.651296,
2004-07-22, 01:02:00,VALID,918.08,VALID,0,VALID,99.6315,VALID,-0.0509425,VALID,20.3621,VALID,24,VALID,0.955487,
2004-07-22, 01:03:00,VALID,918.064,VALID,0,VALID,99.6302,VALID,0,VALID,20.371,VALID,19,VALID,0.797053,
2004-07-22, 01:04:00,VALID,918.05,VALID,0,VALID,99.5577,VALID,0,VALID,20.3715,VALID,7,VALID,0.90718,
2004-07-22, 01:05:00,VALID,918.042,VALID,0,VALID,99.5272,VALID,-0.0509425,VALID,20.3814,VALID,359,VALID,1.07324,
2004-07-22, 01:06:00,VALID,918.03,VALID,0,VALID,99.5463,VALID,-0.0339617,VALID,20.3814,VALID,23,VALID,1.09641,
2004-07-22, 01:07:00,VALID,918.022,VALID,0,VALID,99.5679,VALID,-0.0169808,VALID,20.3874,VALID,18,VALID,0.849826,
2004-07-22, 01:08:00,VALID,918.002,VALID,0,VALID,99.5183,VALID,-0.0169808,VALID,20.3901,VALID,20,VALID,0.772485,
2004-07-22, 01:09:00,VALID,917.982,VALID,0,VALID,99.4458,VALID,0,VALID,20.4003,VALID,26,VALID,0.77907,
2004-07-22, 01:10:00,VALID,917.963,VALID,0,VALID,99.3683,VALID,-0.0509425,VALID,20.4073,VALID,21,VALID,0.49858,
2004-07-22, 01:11:00,VALID,917.936,VALID,0,VALID,99.3466,VALID,-0.0509425,VALID,20.4008,VALID,21,VALID,0.432231,
2004-07-22, 01:12:00,VALID,917.935,VALID,0,VALID,99.3314,VALID,0,VALID,20.4038,VALID,21,VALID,0.513393,
2004-07-22, 01:13:00,VALID,917.932,VALID,0,VALID,99.3161,VALID,-0.0339617,VALID,20.4,VALID,21,VALID,0.775174,
2004-07-22, 01:14:00,VALID,917.92,VALID,0,VALID,99.2347,VALID,-0.0169808,VALID,20.41,VALID,20,VALID,0.898983,
2004-07-22, 01:15:00,VALID,917.906,VALID,0,VALID,99.1165,VALID,0,VALID,20.3842,VALID,15,VALID,0.956499,
2004-07-22, 01:16:00,VALID,917.885,VALID,0,VALID,99.0542,VALID,0,VALID,20.3583,VALID,347,VALID,0.992001,
2004-07-22, 01:17:00,VALID,917.881,VALID,0,VALID,98.9919,VALID,-0.0509425,VALID,20.3459,VALID,17,VALID,1.24524,
2004-07-22, 01:18:00,VALID,917.876,VALID,0,VALID,98.9995,VALID,0,VALID,20.3298,VALID,17,VALID,1.27925,
2004-07-22, 01:19:00,VALID,917.887,VALID,0,VALID,98.9779,VALID,-0.0679233,VALID,20.3071,VALID,16,VALID,0.790039,
2004-07-22, 01:20:00,VALID,917.905,VALID,0,VALID,98.9639,VALID,-0.0169808,VALID,20.2803,VALID,356,VALID,0.661523,
2004-07-22, 01:21:00,VALID,917.896,VALID,0,VALID,98.9779,VALID,0,VALID,20.2803,VALID,21,VALID,0.756541,
2004-07-22, 01:22:00,VALID,917.896,VALID,0,VALID,99.0135,VALID,0,VALID,20.2905,VALID,25,VALID,0.841654,
2004-07-22, 01:23:00,VALID,917.894,VALID,0,VALID,98.9792,VALID,-0.0169808,VALID,20.2838,VALID,20,VALID,0.841087,
2004-07-22, 01:24:00,VALID,917.869,VALID,0,VALID,98.9054,VALID,0,VALID,20.2875,VALID,27,VALID,0.735394,
2004-07-22, 01:25:00,VALID,917.839,VALID,0,VALID,98.8584,VALID,-0.0169808,VALID,20.2577,VALID,23,VALID,1.07831,
2004-07-22, 01:26:00,VALID,917.818,VALID,0,VALID,98.9118,VALID,0,VALID,20.2644,VALID,17,VALID,1.08937,
2004-07-22, 01:27:00,VALID,917.817,VALID,0,VALID,98.9003,VALID,0,VALID,20.2612,VALID,26,VALID,0.734375,
2004-07-22, 01:28:00,VALID,917.83,VALID,0,VALID,98.8139,VALID,0,VALID,20.255,VALID,25,VALID,0.296684,
2004-07-22, 01:29:00,VALID,917.815,VALID,0,VALID,98.7922,VALID,-0.0509425,VALID,20.2418,VALID,25,VALID,0.0628551,
2004-07-22, 01:30:00,VALID,917.781,VALID,0,VALID,98.8227,VALID,-0.0169808,VALID,20.2391,VALID,19,VALID,0.738621,
2004-07-22, 01:31:00,VALID,917.769,VALID,0,VALID,98.8545,VALID,-0.0169808,VALID,20.2522,VALID,359,VALID,0.541548,
2004-07-22, 01:32:00,VALID,917.743,VALID,0,VALID,98.8011,VALID,0.0169808,VALID,20.2222,VALID,357,VALID,0.158736,
2004-07-22, 01:33:00,VALID,917.726,VALID,0,VALID,98.8139,VALID,-0.0169808,VALID,20.2289,VALID,355,VALID,0.46684,
2004-07-22, 01:34:00,VALID,917.71,VALID,0,VALID,98.8584,VALID,0,VALID,20.245,VALID,357,VALID,0.314317,
2004-07-22, 01:35:00,VALID,917.704,VALID,0,VALID,98.899,VALID,0,VALID,20.2453,VALID,360,VALID,0.210751,
2004-07-22, 01:36:00,VALID,917.702,VALID,0,VALID,98.9105,VALID,0,VALID,20.2612,VALID,4,VALID,0.358103,
2004-07-22, 01:37:00,VALID,917.699,VALID,0,VALID,98.9003,VALID,-0.0169808,VALID,20.2746,VALID,4,VALID,0.00342988,
2004-07-22, 01:38:00,VALID,917.687,VALID,0,VALID,98.8431,VALID,-0.0169808,VALID,20.2835,VALID,4,VALID,0.00345203,
2004-07-22, 01:39:00,VALID,917.682,VALID,0,VALID,98.7948,VALID,-0.0339617,VALID,20.2875,VALID,5,VALID,0.360491,
2004-07-22, 01:40:00,VALID,917.686,VALID,0,VALID,98.6689,VALID,-0.0679233,VALID,20.2649,VALID,10,VALID,0.587109,
2004-07-22, 01:41:00,VALID,917.684,VALID,0,VALID,98.5913,VALID,-0.0339617,VALID,20.2286,VALID,22,VALID,0.725204,
2004-07-22, 01:42:00,VALID,917.674,VALID,0,VALID,98.5214,VALID,-0.0509425,VALID,20.2162,VALID,23,VALID,0.560785,
2004-07-22, 01:43:00,VALID,917.672,VALID,0,VALID,98.5544,VALID,-0.0169808,VALID,20.1936,VALID,20,VALID,0.738961,
2004-07-22, 01:44:00,VALID,917.68,VALID,0,VALID,98.5837,VALID,-0.0339617,VALID,20.1673,VALID,357,VALID,0.539621,
2004-07-22, 01:45:00,VALID,917.693,VALID,0,VALID,98.6511,VALID,-0.0169808,VALID,20.1516,VALID,8,VALID,0.399926,
2004-07-22, 01:46:00,VALID,917.687,VALID,0,VALID,98.7452,VALID,-0.0679233,VALID,20.1352,VALID,31,VALID,0.870117,
2004-07-22, 01:47:00,VALID,917.69,VALID,0,VALID,98.8736,VALID,-0.0339617,VALID,20.1287,VALID,25,VALID,0.844703,
2004-07-22, 01:48:00,VALID,917.683,VALID,0,VALID,98.997,VALID,-0.0169808,VALID,20.1287,VALID,32,VALID,0.698785,
2004-07-22, 01:49:00,VALID,917.66,VALID,0,VALID,99.0796,VALID,0,VALID,20.1454,VALID,19,VALID,0.682231,
2004-07-22, 01:50:00,VALID,917.64,VALID,0,VALID,99.0682,VALID,-0.0339617,VALID,20.1484,VALID,18,VALID,0.415206,
2004-07-22, 01:51:00,VALID,917.642,VALID,0,VALID,99.0364,VALID,-0.0339617,VALID,20.1583,VALID,18,VALID,0.40997,
2004-07-22, 01:52:00,VALID,917.65,VALID,0,VALID,99.0186,VALID,-0.0339617,VALID,20.129,VALID,14,VALID,0.60766,
2004-07-22, 01:53:00,VALID,917.651,VALID,0,VALID,99.0313,VALID,-0.0849042,VALID,20.1168,VALID,13,VALID,0.57298,
2004-07-22, 01:54:00,VALID,917.651,VALID,0,VALID,99.1254,VALID,-0.0339617,VALID,20.1032,VALID,15,VALID,0.598722,
2004-07-22, 01:55:00,VALID,917.64,VALID,0,VALID,99.1966,VALID,-0.0509425,VALID,20.0999,VALID,15,VALID,0.277876,
2004-07-22, 01:56:00,VALID,917.656,VALID,0,VALID,99.2309,VALID,-0.0339617,VALID,20.1032,VALID,15,VALID,0.432292,
2004-07-22, 01:57:00,VALID,917.642,VALID,0,VALID,99.2983,VALID,-0.0169808,VALID,20.1126,VALID,15,VALID,0.143714,
2004-07-22, 01:58:00,VALID,917.637,VALID,0,VALID,99.2996,VALID,-0.0339617,VALID,20.1121,VALID,15,VALID,0.257626,
2004-07-22, 01:59:00,VALID,917.608,VALID,0,VALID,99.2284,VALID,-0.0509425,VALID,20.1161,VALID,15,VALID,0.34233,
2004-07-22, 02:00:00,VALID,917.595,VALID,0,VALID,99.2195,VALID,-0.0849042,VALID,20.1233,VALID,15,VALID,0.28125,
2004-07-22, 02:01:00,VALID,917.594,VALID,0,VALID,99.2093,VALID,-0.0509425,VALID,20.1231,VALID,15,VALID,0.507994,
2004-07-22, 02:02:00,VALID,917.606,VALID,0,VALID,99.1228,VALID,-0.0509425,VALID,20.1228,VALID,19,VALID,0.614025,
2004-07-22, 02:03:00,VALID,917.608,VALID,0,VALID,99.0377,VALID,-0.0679233,VALID,20.09,VALID,298,VALID,0.426962,
2004-07-22, 02:04:00,VALID,917.605,VALID,0,VALID,99.0466,VALID,-0.0849042,VALID,20.0838,VALID,3,VALID,0.404297,
2004-07-22, 02:05:00,VALID,917.586,VALID,0,VALID,99.0516,VALID,-0.0679233,VALID,20.0875,VALID,3,VALID,0.598514,
2004-07-22, 02:06:00,VALID,917.558,VALID,0,VALID,99.0466,VALID,-0.101885,VALID,20.0813,VALID,6,VALID,0.30923,
2004-07-22, 02:07:00,VALID,917.553,VALID,0,VALID,99.1101,VALID,-0.101885,VALID,20.0773,VALID,339,VALID,0.181323,
2004-07-22, 02:08:00,VALID,917.532,VALID,0,VALID,99.1534,VALID,-0.0849042,VALID,20.0972,VALID,317,VALID,0.617867,
2004-07-22, 02:09:00,VALID,917.526,VALID,0,VALID,99.1508,VALID,-0.101885,VALID,20.0913,VALID,17,VALID,0.697731,
2004-07-22, 02:10:00,VALID,917.52,VALID,0,VALID,99.2373,VALID,-0.0509425,VALID,20.097,VALID,17,VALID,0.715843,
2004-07-22, 02:11:00,VALID,917.528,VALID,0,VALID,99.2665,VALID,-0.0509425,VALID,20.1233,VALID,10,VALID,0.378906,
2004-07-22, 02:12:00,VALID,917.524,VALID,0,VALID,99.1801,VALID,-0.0339617,VALID,20.1099,VALID,7,VALID,0.25558,
2004-07-22, 02:13:00,VALID,917.535,VALID,0,VALID,99.133,VALID,-0.0509425,VALID,20.1066,VALID,6,VALID,0.0372024,
2004-07-22, 02:14:00,VALID,917.538,VALID,0,VALID,99.1394,VALID,-0.0169808,VALID,20.1091,VALID,6,VALID,0.0984738,
2004-07-22, 02:15:00,VALID,917.516,VALID,0,VALID,99.1801,VALID,-0.0679233,VALID,20.1193,VALID,6,VALID,0.0484375,
2004-07-22, 02:16:00,VALID,917.504,VALID,0,VALID,99.2093,VALID,-0.0509425,VALID,20.1352,VALID,6,VALID,0.00327035,
2004-07-22, 02:17:00,VALID,917.494,VALID,0,VALID,99.2182,VALID,-0.0169808,VALID,20.1618,VALID,6,VALID,0.0225497,
2004-07-22, 02:18:00,VALID,917.48,VALID,0,VALID,99.175,VALID,-0.0339617,VALID,20.1648,VALID,6,VALID,0.217708,
2004-07-22, 02:19:00,VALID,917.477,VALID,0,VALID,99.1521,VALID,-0.0509425,VALID,20.168,VALID,8,VALID,0.242188,
2004-07-22, 02:20:00,VALID,917.48,VALID,0,VALID,99.0504,VALID,-0.0339617,VALID,20.1616,VALID,353,VALID,0.768895,
2004-07-22, 02:21:00,VALID,917.467,VALID,0,VALID,98.9779,VALID,-0.0509425,VALID,20.1519,VALID,296,VALID,1.14577,
2004-07-22, 02:22:00,VALID,917.465,VALID,0,VALID,98.9804,VALID,-0.0679233,VALID,20.1489,VALID,325,VALID,0.505526,
2004-07-22, 02:23:00,VALID,917.463,VALID,0,VALID,99.0326,VALID,-0.0679233,VALID,20.1616,VALID,344,VALID,0.0203488,
2004-07-22, 02:24:00,VALID,917.458,VALID,0,VALID,99.0542,VALID,-0.0679233,VALID,20.1747,VALID,344,VALID,0.0541424,
2004-07-22, 02:25:00,VALID,917.457,VALID,0,VALID,99.0733,VALID,-0.0339617,VALID,20.1812,VALID,344,VALID,0.00287829,
2004-07-22, 02:26:00,VALID,917.457,VALID,0,VALID,99.0682,VALID,-0.0679233,VALID,20.2011,VALID,354,VALID,0.168255,
2004-07-22, 02:27:00,VALID,917.444,VALID,0,VALID,99.058,VALID,-0.0509425,VALID,20.2043,VALID,9,VALID,0.467507,
2004-07-22, 02:28:00,VALID,917.454,VALID,0,VALID,99.058,VALID,-0.0509425,VALID,20.1976,VALID,9,VALID,0.400915,
2004-07-22, 02:29:00,VALID,917.432,VALID,0,VALID,99.0351,VALID,-0.0339617,VALID,20.2172,VALID,12,VALID,0.654916,
2004-07-22, 02:30:00,VALID,917.425,VALID,0,VALID,99.0122,VALID,-0.0339617,VALID,20.1904,VALID,7,VALID,0.183333,
2004-07-22, 02:31:00,VALID,917.411,VALID,0,VALID,98.9677,VALID,-0.0849042,VALID,20.2008,VALID,7,VALID,0.00981105,
2004-07-22, 02:32:00,VALID,917.402,VALID,0,VALID,98.9728,VALID,-0.0509425,VALID,20.1906,VALID,7,VALID,0.148611,
2004-07-22, 02:33:00,VALID,917.403,VALID,0,VALID,98.969,VALID,-0.0509425,VALID,20.1847,VALID,7,VALID,0.081577,
2004-07-22, 02:34:00,VALID,917.386,VALID,0,VALID,98.955,VALID,-0.0339617,VALID,20.1879,VALID,7,VALID,0.0181641,
2004-07-22, 02:35:00,VALID,917.408,VALID,0,VALID,98.8622,VALID,-0.0679233,VALID,20.168,VALID,7,VALID,0.121466,
2004-07-22, 02:36:00,VALID,917.412,VALID,0,VALID,98.7884,VALID,-0.0679233,VALID,20.1583,VALID,359,VALID,0.339063,
2004-07-22, 02:37:00,VALID,917.396,VALID,0,VALID,98.7414,VALID,-0.0339617,VALID,20.1548,VALID,353,VALID,0.12282,
2004-07-22, 02:38:00,VALID,917.381,VALID,0,VALID,98.7083,VALID,-0.0169808,VALID,20.1516,VALID,353,VALID,0,
2004-07-22, 02:39:00,VALID,917.367,VALID,0,VALID,98.7248,VALID,-0.0169808,VALID,20.1389,VALID,353,VALID,0,
2004-07-22, 02:40:00,VALID,917.338,VALID,0,VALID,98.7477,VALID,-0.0169808,VALID,20.1384,VALID,353,VALID,0,
2004-07-22, 02:41:00,VALID,917.319,VALID,0,VALID,98.7007,VALID,0,VALID,20.1417,VALID,353,VALID,0.0428735,
2004-07-22, 02:42:00,VALID,917.302,VALID,0,VALID,98.6231,VALID,-0.0169808,VALID,20.1322,VALID,250,VALID,0.650213,
2004-07-22, 02:43:00,VALID,917.309,VALID,0,VALID,98.4718,VALID,0,VALID,20.1061,VALID,214,VALID,0.415082,
2004-07-22, 02:44:00,VALID,917.304,VALID,0,VALID,98.4324,VALID,0,VALID,20.0994,VALID,209,VALID,0.16276,
2004-07-22, 02:45:00,VALID,917.32,VALID,0,VALID,98.3739,VALID,0.0169808,VALID,20.1099,VALID,209,VALID,0.0576172,
2004-07-22, 02:46:00,VALID,917.316,VALID,0,VALID,98.3421,VALID,-0.0339617,VALID,20.0803,VALID,209,VALID,0.0372024,
2004-07-22, 02:47:00,VALID,917.32,VALID,0,VALID,98.3815,VALID,-0.0169808,VALID,20.0674,VALID,209,VALID,0.000195313,
2004-07-22, 02:48:00,VALID,917.306,VALID,0,VALID,98.4108,VALID,0,VALID,20.0709,VALID,209,VALID,0.0962891,
2004-07-22, 02:49:00,VALID,917.29,VALID,0,VALID,98.4502,VALID,0,VALID,20.0709,VALID,209,VALID,0,
2004-07-22, 02:50:00,VALID,917.261,VALID,0,VALID,98.4921,VALID,-0.0339617,VALID,20.0547,VALID,209,VALID,0,
2004-07-22, 02:51:00,VALID,917.243,VALID,0,VALID,98.5201,VALID,-0.0509425,VALID,20.0679,VALID,209,VALID,0,
2004-07-22, 02:52:00,VALID,917.216,VALID,0,VALID,98.5443,VALID,-0.0169808,VALID,20.0612,VALID,209,VALID,0,
2004-07-22, 02:53:00,VALID,917.223,VALID,0,VALID,98.5633,VALID,-0.0169808,VALID,20.0647,VALID,209,VALID,0,
2004-07-22, 02:54:00,VALID,917.23,VALID,0,VALID,98.5761,VALID,-0.0509425,VALID,20.058,VALID,209,VALID,0,
2004-07-22, 02:55:00,VALID,917.221,VALID,0,VALID,98.5786,VALID,-0.0509425,VALID,20.0483,VALID,209,VALID,0,
2004-07-22, 02:56:00,VALID,917.21,VALID,0,VALID,98.6053,VALID,-0.0169808,VALID,20.0418,VALID,209,VALID,0,
2004-07-22, 02:57:00,VALID,917.196,VALID,0,VALID,98.6346,VALID,-0.0169808,VALID,20.0284,VALID,209,VALID,0,
2004-07-22, 02:58:00,VALID,917.174,VALID,0,VALID,98.6358,VALID,-0.0509425,VALID,20.0289,VALID,209,VALID,0,
2004-07-22, 02:59:00,VALID,917.152,VALID,0,VALID,98.5544,VALID,-0.0339617,VALID,20.016,VALID,209,VALID,0,
2004-07-22, 03:00:00,VALID,917.141,VALID,0,VALID,98.4692,VALID,-0.0169808,VALID,19.9934,VALID,209,VALID,0.114931,
2004-07-22, 03:01:00,VALID,917.138,VALID,0,VALID,98.4934,VALID,-0.0169808,VALID,19.9777,VALID,232,VALID,0.131392,
2004-07-22, 03:02:00,VALID,917.117,VALID,0,VALID,98.5239,VALID,-0.0339617,VALID,19.9581,VALID,346,VALID,0.522396,
2004-07-22, 03:03:00,VALID,917.121,VALID,0,VALID,98.5799,VALID,0,VALID,19.9253,VALID,19,VALID,0.306818,
2004-07-22, 03:04:00,VALID,917.135,VALID,0,VALID,98.4718,VALID,-0.0339617,VALID,19.89,VALID,22,VALID,0.569712,
2004-07-22, 03:05:00,VALID,917.128,VALID,0,VALID,98.3561,VALID,0,VALID,19.8617,VALID,16,VALID,0.542969,
2004-07-22, 03:06:00,VALID,917.113,VALID,0,VALID,98.5176,VALID,-0.0339617,VALID,19.8287,VALID,16,VALID,0.722569,
2004-07-22, 03:07:00,VALID,917.086,VALID,0,VALID,98.6663,VALID,0.0169808,VALID,19.8125,VALID,16,VALID,0.920759,
2004-07-22, 03:08:00,VALID,917.073,VALID,0,VALID,98.7159,VALID,0.0339617,VALID,19.7996,VALID,16,VALID,0.832667,
2004-07-22, 03:09:00,VALID,917.05,VALID,0,VALID,98.7223,VALID,-0.0339617,VALID,19.7772,VALID,16,VALID,0.757457,
2004-07-22, 03:10:00,VALID,917.03,VALID,0,VALID,98.8507,VALID,-0.0509425,VALID,19.7643,VALID,16,VALID,0.635174,
2004-07-22, 03:11:00,VALID,917.02,VALID,0,VALID,98.899,VALID,-0.0339617,VALID,19.7648,VALID,16,VALID,0.368963,
2004-07-22, 03:12:00,VALID,917.025,VALID,0,VALID,98.866,VALID,-0.0339617,VALID,19.7484,VALID,16,VALID,0.245808,
2004-07-22, 03:13:00,VALID,917.009,VALID,0,VALID,98.9461,VALID,-0.0679233,VALID,19.7427,VALID,334,VALID,0.486049,
2004-07-22, 03:14:00,VALID,917,VALID,0,VALID,99.002,VALID,-0.0509425,VALID,19.7323,VALID,15,VALID,0.959162,
2004-07-22, 03:15:00,VALID,916.993,VALID,0,VALID,98.838,VALID,-0.0339617,VALID,19.6968,VALID,6,VALID,0.807986,
2004-07-22, 03:16:00,VALID,916.984,VALID,0,VALID,98.9677,VALID,-0.0169808,VALID,19.6935,VALID,19,VALID,0.523242,
2004-07-22, 03:17:00,VALID,916.988,VALID,0,VALID,99.0046,VALID,-0.0509425,VALID,19.7005,VALID,19,VALID,0.353299,
2004-07-22, 03:18:00,VALID,916.977,VALID,0,VALID,98.969,VALID,-0.0339617,VALID,19.6965,VALID,19,VALID,0.0390625,
2004-07-22, 03:19:00,VALID,916.951,VALID,0,VALID,98.9741,VALID,0,VALID,19.6806,VALID,19,VALID,0,
2004-07-22, 03:20:00,VALID,916.939,VALID,0,VALID,98.9931,VALID,-0.0509425,VALID,19.6811,VALID,19,VALID,0.0105903,
2004-07-22, 03:21:00,VALID,916.94,VALID,0,VALID,98.9385,VALID,-0.0509425,VALID,19.6744,VALID,19,VALID,0.223242,
2004-07-22, 03:22:00,VALID,916.956,VALID,0,VALID,98.8062,VALID,-0.0509425,VALID,19.6451,VALID,19,VALID,0.0861192,
2004-07-22, 03:23:00,VALID,916.977,VALID,0,VALID,98.6765,VALID,-0.0849042,VALID,19.6068,VALID,17,VALID,0.327035,
2004-07-22, 03:24:00,VALID,916.989,VALID,0,VALID,98.8494,VALID,-0.0679233,VALID,19.5939,VALID,357,VALID,0.574505,
2004-07-22, 03:25:00,VALID,916.977,VALID,0,VALID,99.2055,VALID,-0.0509425,VALID,19.6391,VALID,350,VALID,0.517756,
2004-07-22, 03:26:00,VALID,916.972,VALID,0,VALID,99.2996,VALID,-0.0339617,VALID,19.662,VALID,349,VALID,0.549419,
2004-07-22, 03:27:00,VALID,916.938,VALID,0,VALID,99.2907,VALID,-0.0339617,VALID,19.6558,VALID,349,VALID,0.338368,
2004-07-22, 03:28:00,VALID,916.923,VALID,0,VALID,99.2004,VALID,-0.0509425,VALID,19.6428,VALID,355,VALID,0.398628,
2004-07-22, 03:29:00,VALID,916.918,VALID,0,VALID,99.0961,VALID,-0.101885,VALID,19.6073,VALID,4,VALID,0.42889,
2004-07-22, 03:30:00,VALID,916.894,VALID,0,VALID,99.0949,VALID,-0.0849042,VALID,19.582,VALID,4,VALID,0.665015,
2004-07-22, 03:31:00,VALID,916.915,VALID,0,VALID,99.1839,VALID,-0.0679233,VALID,19.5621,VALID,9,VALID,1.08683,
2004-07-22, 03:32:00,VALID,916.926,VALID,0,VALID,99.2894,VALID,-0.0849042,VALID,19.54,VALID,357,VALID,0.879542,
2004-07-22, 03:33:00,VALID,916.939,VALID,0,VALID,99.484,VALID,-0.101885,VALID,19.5368,VALID,347,VALID,0.893056,